Harare Kutsaga, Zimbabwe

2:21 PM CAT on June 24, 2017 (GMT +0200)
Harare Kutsaga

Weather History for FVHA - November, 2013

Change the Weather History Date:

Tuesday, November 5, 2013

  Actual Average Record
Temperature  
Mean Temperature 70 °F -  
Max Temperature 84 °F 81 °F 91 °F (1999)
Min Temperature 57 °F 59 °F 50 °F (2015)
Cooling Degree Days 6    
Growing Degree Days 20 (Base 50)    
Moisture  
Dew Point 57 °F    
Average Humidity 60    
Maximum Humidity 100    
Minimum Humidity 25    
Precipitation  
Precipitation 0.00 in 0.15 in - ()
Sea Level Pressure  
Sea Level Pressure 30.22 in    
Wind  
Wind Speed 6 mph ()    
Max Wind Speed 10 mph    
Max Gust Speed -    
Visibility 8.9 miles    
Events Thunderstorm    
Averages and records for this station are not official NWS values.
T = Trace of Precipitation, MM = Missing Value Source: Averaged Metar Reports

Daily Weather History Graph

Daily Weather History Graph

Search for Another Location

Airport or City:

Trip Planner

Search our weather history database for the weather conditions in past years. The results will help you decide how hot, cold, wet, or windy it might be!

Date:

Astronomy

Nov. 05, 2013 Rise Set
Actual Time 5:14 AM CAT 6:03 PM CAT
Civil Twilight 4:51 AM CAT 6:26 PM CAT
Nautical Twilight 4:24 AM CAT 6:53 PM CAT
Astronomical Twilight 3:57 AM CAT 7:20 PM CAT
Moon 6:47 AM CAT (11/5) 8:08 PM CAT (11/5)
Length of Visible Light 13h 34m
Length of Day
12h 49m
Waxing Crescent, 5% of the Moon is Illuminated
Nov 5
Waxing Crescent
Nov 10
First Quarter
Nov 17
Full
Nov 25
Last Quarter
Dec 3
New

Hourly Weather History & Observations

Time (CAT) Temp. Heat Index Dew Point Humidity Pressure Visibility Wind Dir Wind Speed Gust Speed Precip Events Conditions
2:00 AM 59.0 °F - 57.2 °F 94% 30.21 in - SE 4.6 mph - N/A   Clear
5:00 AM 57.2 °F - 57.2 °F 100% 30.24 in - ENE 5.8 mph - N/A   Clear
6:00 AM 59.0 °F - 57.2 °F 94% 30.24 in - East 4.6 mph - N/A   Clear
7:00 AM 64.4 °F - 59.0 °F 83% 30.27 in - East 9.2 mph - N/A   Clear
8:00 AM 72 °F - 59 °F 55%  in 19 mi East 2.3 mph - -   Scattered Clouds
8:00 AM 71.6 °F - 59.0 °F 64% 30.30 in - East 8.1 mph - N/A   Clear
9:00 AM 73.4 °F - 57.2 °F 57% 30.30 in - ENE 10.4 mph - N/A   Clear
10:00 AM 75.2 °F - 59.0 °F 57% 30.30 in 6.2 mi East 9.2 mph - N/A   Mostly Cloudy
11:00 AM 78.8 °F - 57.2 °F 47% 30.27 in 6.2 mi East 8.1 mph - N/A   Mostly Cloudy
12:00 PM 82.4 °F 82.5 °F 59.0 °F 45% 30.24 in 6.2 mi East 9.2 mph - N/A   Mostly Cloudy
1:00 PM 82.4 °F 82.0 °F 57.2 °F 42% 30.21 in 6.2 mi Variable 6.9 mph - N/A   Mostly Cloudy
2:00 PM 82 °F - 52 °F 25%  in 19 mi North 8.1 mph - -   Mostly Cloudy
2:00 PM 82.4 °F - 51.8 °F 35% 30.18 in 6.2 mi North 8.1 mph - N/A   Mostly Cloudy
3:00 PM 82.4 °F 81.7 °F 55.4 °F 39% 30.15 in 6.2 mi Variable 4.6 mph - N/A   Mostly Cloudy
4:00 PM 82.4 °F 81.4 °F 53.6 °F 37% 30.15 in 6.2 mi NE 8.1 mph - N/A   Scattered Clouds
5:00 PM 82.4 °F 81.7 °F 55.4 °F 39% 30.15 in 6.2 mi ENE 9.2 mph - N/A   Scattered Clouds
6:00 PM 75.2 °F - 57.2 °F 53% 30.18 in 6.2 mi SE 6.9 mph - N/A Thunderstorm Thunderstorm
7:00 PM 73.4 °F - 57.2 °F 57% 30.18 in 6.2 mi ESE 8.1 mph - N/A Thunderstorm Thunderstorm
8:00 PM 69 °F - 58 °F 61%  in 19 mi East 6.9 mph - -   Partly Cloudy
8:00 PM 68.0 °F - 59.0 °F 73% 30.21 in 6.2 mi East 6.9 mph - N/A   Partly Cloudy
9:00 PM 68.0 °F - 57.2 °F 68% 30.21 in - East 8.1 mph - N/A   Clear
10:00 PM 66.2 °F - 57.2 °F 73% 30.21 in - East 6.9 mph - N/A   Clear
11:00 PM 64.4 °F - 57.2 °F 77% 30.21 in - East 6.9 mph - N/A   Clear